Total_Precipitation_Accumulation
0.00 0.00 0.02 0.09 0.36 0.67 0.71 0.47 0.38 0.28 0.27 0.25 0.27 0.26 0.31 0.43 0.60 0.66 0.27 0.08 0.01 0.00 0.01 0.05 0.11 0.11 0.09 0.09 0.10 0.13 0.13 0.14 0.13 0.12 0.12 0.11 0.08 0.05 0.03 0.03 0.02 0.02 0.03 0.02 0.03 0.03 0.03 0.03 0.03
0.00 0.00 0.02 0.09 0.31 0.61 0.53 0.40 0.32 0.23 0.25 0.29 0.42 0.42 0.32 0.38 0.40 0.31 0.18 0.09 0.02 0.01 0.01 0.02 0.07 0.10 0.10 0.09 0.10 0.11 0.12 0.10 0.10 0.09 0.09 0.09 0.06 0.04 0.03 0.03 0.03 0.03 0.04 0.03 0.03 0.03 0.03 0.02 0.02
0.00 0.01 0.04 0.10 0.20 0.29 0.27 0.18 0.18 0.23 0.32 0.41 0.46 0.46 0.42 0.39 0.33 0.24 0.17 0.08 0.04 0.01 0.01 0.02 0.06 0.08 0.09 0.11 0.10 0.11 0.10 0.09 0.09 0.08 0.08 0.07 0.06 0.04 0.03 0.04 0.04 0.05 0.06 0.06 0.05 0.05 0.05 0.03 0.03
0.01 0.02 0.07 0.10 0.06 0.05 0.07 0.10 0.17 0.27 0.47 0.70 0.69 0.54 0.43 0.32 0.24 0.18 0.20 0.12 0.05 0.02 0.01 0.04 0.07 0.08 0.09 0.09 0.10 0.10 0.10 0.09 0.10 0.09 0.08 0.07 0.06 0.06 0.05 0.05 0.05 0.07 0.09 0.10 0.10 0.09 0.07 0.04 0.03
0.01 0.02 0.06 0.06 0.03 0.03 0.04 0.11 0.21 0.35 0.51 0.69 0.73 0.63 0.54 0.39 0.27 0.23 0.17 0.14 0.08 0.05 0.03 0.04 0.09 0.10 0.10 0.11 0.13 0.12 0.10 0.10 0.10 0.09 0.09 0.09 0.08 0.08 0.07 0.07 0.07 0.08 0.10 0.11 0.11 0.12 0.10 0.06 0.03
0.00 0.01 0.03 0.02 0.02 0.03 0.06 0.13 0.23 0.35 0.49 0.65 0.89 0.90 0.67 0.45 0.41 0.34 0.22 0.15 0.11 0.09 0.05 0.06 0.12 0.15 0.15 0.15 0.17 0.16 0.13 0.12 0.12 0.12 0.12 0.11 0.10 0.10 0.12 0.12 0.11 0.11 0.11 0.12 0.13 0.14 0.13 0.10 0.07
0.00 0.00 0.01 0.01 0.02 0.04 0.06 0.12 0.23 0.36 0.50 0.77 1.04 1.05 0.71 0.48 0.44 0.41 0.35 0.23 0.20 0.13 0.08 0.08 0.10 0.13 0.15 0.19 0.21 0.20 0.17 0.15 0.15 0.15 0.14 0.12 0.12 0.13 0.15 0.18 0.19 0.18 0.18 0.16 0.17 0.18 0.19 0.17 0.13
0.00 0.00 0.00 0.00 0.01 0.04 0.10 0.15 0.27 0.45 0.63 0.85 1.01 1.08 0.97 0.58 0.43 0.46 0.49 0.40 0.41 0.27 0.14 0.13 0.13 0.16 0.16 0.18 0.21 0.21 0.19 0.18 0.18 0.18 0.18 0.18 0.20 0.25 0.30 0.30 0.29 0.28 0.29 0.30 0.33 0.33 0.35 0.35 0.28
0.00 0.00 0.00 0.00 0.01 0.09 0.13 0.17 0.23 0.33 0.51 0.71 0.85 0.90 0.76 0.55 0.53 0.62 0.65 0.49 0.47 0.42 0.27 0.25 0.24 0.20 0.23 0.24 0.25 0.32 0.32 0.34 0.37 0.41 0.38 0.35 0.38 0.51 0.64 0.57 0.56 0.56 0.59 0.64 0.70 0.71 0.73 0.69 0.54
0.00 0.00 0.00 0.00 0.00 0.05 0.11 0.15 0.23 0.31 0.66 1.18 1.18 0.84 0.60 0.68 0.75 0.79 0.78 0.64 0.55 0.53 0.43 0.37 0.36 0.34 0.36 0.38 0.57 0.74 0.70 0.80 0.76 0.86 0.78 0.78 0.81 0.70 0.58 0.69 0.81 0.91 1.09 1.19 1.25 1.30 1.30 1.18 0.95
0.00 0.00 0.00 0.00 0.01 0.01 0.04 0.10 0.18 0.36 0.80 1.41 1.56 1.16 0.92 0.91 1.04 0.94 0.92 0.90 0.82 0.76 0.71 0.50 0.50 0.48 0.55 0.65 0.84 0.99 1.03 1.09 1.05 1.10 1.14 1.22 1.22 1.03 0.91 1.07 1.30 1.42 1.56 1.63 1.88 1.93 1.59 1.55 1.56
0.00 0.00 0.00 0.00 0.01 0.01 0.08 0.15 0.23 0.29 0.71 1.05 1.01 0.86 0.92 1.01 1.10 1.16 1.14 1.19 1.06 0.99 1.03 0.90 0.89 0.84 0.85 0.89 0.93 0.98 0.94 0.98 1.06 1.15 1.26 1.40 1.37 1.38 1.35 1.41 1.49 1.63 1.82 2.03 2.12 2.12 2.01 2.11 2.09
0.00 0.00 0.00 0.01 0.03 0.04 0.09 0.12 0.21 0.34 0.48 0.61 0.57 0.68 1.00 1.17 1.31 1.45 1.44 1.51 1.50 1.48 1.46 1.37 1.35 1.20 1.04 0.91 0.86 0.81 0.79 0.78 0.86 0.94 1.01 1.09 1.30 1.43 1.44 1.30 1.29 1.34 1.57 1.89 2.19 2.22 2.43 2.52 2.33
0.00 0.00 0.01 0.03 0.03 0.04 0.07 0.09 0.19 0.38 0.43 0.56 0.69 0.82 1.08 1.42 1.63 1.75 2.02 2.21 2.37 2.21 1.96 1.86 1.73 1.40 1.22 1.07 0.91 0.83 0.73 0.74 0.76 0.75 0.82 0.98 1.10 1.26 1.23 1.22 1.27 1.31 1.34 1.48 1.86 2.10 2.30 2.23 2.01
0.00 0.02 0.05 0.06 0.03 0.05 0.05 0.15 0.33 0.48 0.67 0.70 0.86 1.04 1.29 1.69 2.00 2.34 2.61 3.02 3.26 3.17 2.59 2.09 1.83 1.56 1.34 1.22 1.05 0.90 0.79 0.72 0.71 0.67 0.72 0.80 0.87 0.98 1.02 1.02 1.02 1.07 1.09 1.13 1.27 1.48 1.65 1.58 1.47
0.01 0.08 0.17 0.10 0.06 0.06 0.10 0.40 0.60 0.51 0.81 1.12 1.05 1.29 1.62 1.98 2.25 2.70 3.22 3.75 4.07 4.04 3.32 2.49 2.00 1.91 1.72 1.51 1.12 0.85 0.73 0.62 0.54 0.50 0.50 0.54 0.57 0.59 0.62 0.63 0.61 0.64 0.64 0.68 0.78 0.89 0.99 1.07 1.15
0.03 0.07 0.15 0.17 0.10 0.09 0.17 0.57 0.73 0.52 0.65 0.94 1.16 1.37 1.75 2.03 2.17 2.52 3.05 3.70 4.05 4.32 3.97 3.10 2.77 2.62 1.98 1.31 0.88 0.67 0.55 0.43 0.37 0.39 0.36 0.38 0.40 0.41 0.45 0.44 0.43 0.41 0.39 0.40 0.42 0.52 0.62 0.71 0.79
0.02 0.04 0.09 0.21 0.16 0.16 0.24 0.43 0.69 0.71 0.86 1.07 1.21 1.34 1.59 1.68 1.75 2.01 2.39 2.67 3.04 3.27 3.02 2.67 2.51 2.03 1.37 0.85 0.57 0.39 0.32 0.26 0.22 0.26 0.27 0.28 0.31 0.33 0.37 0.36 0.34 0.31 0.28 0.30 0.35 0.40 0.44 0.44 0.48
0.02 0.04 0.08 0.14 0.16 0.22 0.35 0.46 0.65 0.80 1.01 1.16 1.18 1.15 1.17 1.26 1.40 1.52 1.61 1.73 1.79 1.74 1.62 1.60 1.47 1.21 0.80 0.54 0.31 0.21 0.18 0.16 0.14 0.16 0.16 0.19 0.23 0.28 0.35 0.30 0.33 0.30 0.25 0.25 0.27 0.30 0.31 0.29 0.29
0.03 0.06 0.11 0.14 0.14 0.19 0.34 0.59 0.73 0.80 0.83 0.90 0.97 0.94 0.91 0.97 1.03 1.01 1.02 1.20 1.11 1.03 1.01 0.96 0.93 0.73 0.47 0.33 0.22 0.17 0.13 0.09 0.08 0.08 0.09 0.09 0.12 0.17 0.23 0.31 0.25 0.26 0.26 0.25 0.25 0.27 0.25 0.22 0.24
0.04 0.05 0.06 0.10 0.11 0.19 0.34 0.83 0.90 0.75 0.67 0.60 0.70 0.74 0.68 0.68 0.65 0.59 0.61 0.68 0.82 0.97 0.87 0.69 0.65 0.50 0.33 0.21 0.15 0.13 0.12 0.12 0.10 0.08 0.07 0.08 0.07 0.09 0.14 0.21 0.24 0.27 0.25 0.28 0.32 0.30 0.27 0.21 0.19
0.04 0.03 0.02 0.02 0.07 0.30 0.42 0.84 0.90 0.74 0.72 0.54 0.51 0.51 0.41 0.33 0.35 0.40 0.41 0.44 0.55 0.66 0.65 0.61 0.57 0.45 0.29 0.19 0.13 0.11 0.10 0.10 0.09 0.07 0.07 0.07 0.06 0.07 0.08 0.10 0.15 0.22 0.26 0.33 0.26 0.29 0.30 0.26 0.19
0.01 0.01 0.01 0.03 0.10 0.27 0.39 0.71 0.90 0.69 0.74 0.51 0.32 0.22 0.14 0.12 0.15 0.24 0.27 0.30 0.31 0.34 0.44 0.50 0.55 0.52 0.35 0.24 0.17 0.14 0.11 0.09 0.08 0.08 0.09 0.09 0.10 0.11 0.12 0.12 0.11 0.12 0.19 0.26 0.29 0.35 0.32 0.32 0.27
0.01 0.01 0.08 0.17 0.29 0.60 0.58 0.57 0.84 0.59 0.39 0.22 0.14 0.08 0.06 0.06 0.08 0.14 0.17 0.19 0.23 0.26 0.28 0.33 0.42 0.48 0.37 0.27 0.21 0.21 0.20 0.17 0.15 0.13 0.14 0.15 0.18 0.20 0.19 0.20 0.20 0.20 0.18 0.17 0.19 0.24 0.30 0.35 0.36
0.02 0.03 0.16 0.36 0.61 0.79 0.45 0.57 0.90 0.43 0.22 0.11 0.07 0.05 0.03 0.03 0.04 0.07 0.10 0.11 0.15 0.18 0.18 0.18 0.25 0.30 0.27 0.22 0.18 0.21 0.29 0.34 0.33 0.28 0.24 0.21 0.21 0.23 0.23 0.23 0.24 0.27 0.28 0.25 0.20 0.16 0.20 0.28 0.33
0.02 0.02 0.05 0.11 0.20 0.33 0.37 0.96 0.80 0.23 0.12 0.07 0.04 0.03 0.03 0.02 0.02 0.02 0.04 0.07 0.08 0.11 0.12 0.12 0.16 0.18 0.17 0.13 0.14 0.13 0.16 0.20 0.28 0.35 0.31 0.31 0.32 0.27 0.23 0.21 0.22 0.26 0.30 0.31 0.28 0.22 0.20 0.22 0.26
0.02 0.01 0.02 0.03 0.05 0.21 0.49 0.69 0.38 0.10 0.06 0.05 0.03 0.03 0.02 0.02 0.01 0.01 0.01 0.04 0.05 0.05 0.07 0.07 0.10 0.13 0.12 0.09 0.08 0.06 0.06 0.06 0.09 0.14 0.16 0.21 0.31 0.31 0.24 0.20 0.19 0.22 0.25 0.30 0.31 0.30 0.29 0.27 0.24
0.03 0.02 0.02 0.02 0.04 0.15 0.36 0.58 0.54 0.20 0.09 0.05 0.03 0.02 0.02 0.01 0.01 0.01 0.01 0.01 0.02 0.04 0.06 0.06 0.08 0.09 0.09 0.07 0.05 0.03 0.05 0.04 0.05 0.06 0.06 0.07 0.12 0.15 0.16 0.16 0.16 0.17 0.19 0.23 0.29 0.34 0.40 0.42 0.38
0.04 0.03 0.02 0.02 0.03 0.07 0.22 0.35 0.35 0.19 0.11 0.07 0.04 0.03 0.04 0.03 0.02 0.02 0.02 0.01 0.01 0.04 0.06 0.06 0.08 0.07 0.05 0.05 0.04 0.04 0.04 0.03 0.03 0.03 0.03 0.04 0.04 0.04 0.05 0.07 0.09 0.10 0.12 0.15 0.21 0.27 0.38 0.52 0.59
0.05 0.06 0.05 0.04 0.04 0.05 0.09 0.15 0.13 0.12 0.12 0.11 0.07 0.04 0.05 0.04 0.02 0.02 0.02 0.02 0.02 0.05 0.07 0.08 0.08 0.06 0.03 0.03 0.04 0.04 0.04 0.04 0.05 0.05 0.05 0.05 0.05 0.05 0.04 0.06 0.07 0.05 0.06 0.08 0.12 0.18 0.25 0.37 0.53